Regional Weather Roundup
Issued by NWS

Home | Current Version | Previous Version | Text Only | Print | Product List | Glossary Off
Versions: 1 2 3 4 5 6 7 8 9 10 11 12 13 14 15 16 17 18 19 20 21 22 23 24 25 26 27 28 29 30 31 32 33 34 35 36 37 38 39 40 41 42 43 44 45 46 47 48 49 50

000
ASUS43 KLMK 302002
RWRKY
KENTUCKY REGIONAL WEATHER ROUNDUP
NATIONAL WEATHER SERVICE LOUISVILLE KY
400 PM EDT SAT APR 30 2016

NOTE "FAIR" INDICATES FEW OR NO CLOUDS BELOW 12,000 FEET
WITH NO SIGNIFICANT WEATHER AND/OR OBSTRUCTIONS TO VISIBILITY.

KYZ001>023-026-027-061>063-070>075-302100-
WESTERN AND SOUTH CENTRAL KENTUCKY

CITY           SKY/WX    TMP DP  RH WIND       PRES   REMARKS
PADUCAH        MOSUNNY   73  61  65 S12G20    29.81F
HENDERSON      CLOUDY    66  61  82 SE7       29.83F
OWENSBORO      CLOUDY    68  65  90 S9        29.86F
HOPKINSVILLE   DRIZZLE   71  66  83 S5        29.86R
BOWLING GREEN  CLOUDY    71  64  78 SE10      29.86F
GLASGOW        NOT AVBL
$$

KYZ024-025-028>034-038-045-046-053-302100-
NORTH CENTRAL KENTUCKY

CITY           SKY/WX    TMP DP  RH WIND       PRES   REMARKS
LOUISVILLE/SDF CLOUDY    65  61  87 SE9       29.86F
LOUISVILLE/LOU CLOUDY    64  60  87 SE10      29.88F
FORT KNOX      CLOUDY    64  63  94 SE12      29.86S
$$

KYZ035>037-039>044-047>052-055>060-089>105-302100-
NORTHEAST KENTUCKY

CITY           SKY/WX    TMP DP  RH WIND       PRES   REMARKS
LEXINGTON      CLOUDY    62  59  90 SE8       29.96F
COVINGTON      LGT RAIN  58  57  97 SE10      29.92F
FRANKFORT      CLOUDY    63  59  87 SE9       29.92F
$$

KYZ054-064>069-076>088-106>120-302100-
SOUTHEAST KENTUCKY

CITY           SKY/WX    TMP DP  RH WIND       PRES   REMARKS
JACKSON        RAIN      60  58  92 SE5       30.03S FOG
LONDON         CLOUDY    62  59  90 E6        29.98F
SOMERSET       NOT AVBL
MIDDLESBORO    NOT AVBL
MONTICELLO     CLOUDY    64  61  90 E6        29.96F
$$





USA.gov is the U.S. government's official web portal to all federal, state and local government web resources and services.